[[{"header":{"parameterUnit":"m.s-1","parameterCategory":2,"la1":30.2991,"la2":30.254,"lo1":-89.0895,"lo2":-89.0444,"dy":0.0017,"dx":0.0017,"nx":28,"ny":28,"refTime":"2023-10-21T09:00:00:Z","depth":"0","parameterNumber":2,"parameterNumberName":"U-component_of_CURRENTS"},"data":[0,0,0,0,0,0,0,0,0,0,0,0,0,0,0,0,0,0,0,0,0,0,0,0,0,0,0,0,0,0,0,0,0,0,0,0,0,0,0,0,0,0,0,0,0,0,0,0,0,0,0,0,0,0,0,0,0,0,-0.2882,-0.2882,0,-0.2817,-0.2816,-0.2814,-0.2669,-0.2666,-0.2664,-0.2662,-0.2484,-0.2481,-0.2479,0,0,0,0,0,0,0,0,0,0,0,0,0,-0.275,-0.2753,-0.2882,-0.2882,-0.2882,-0.2817,-0.2816,-0.2814,-0.2669,-0.2666,-0.2664,-0.2661,-0.2485,-0.2482,-0.2478,0,0,0,0,0,0,0,0,0,0,0,0,0,-0.275,-0.2754,-0.2882,-0.2809,-0.2803,-0.2818,-0.2816,-0.2813,-0.2669,-0.2666,-0.2663,-0.266,-0.2486,-0.2482,-0.2478,-0.2516,0,0,-0.2465,-0.2463,0,0,0,0,0,0,0,0,-0.275,-0.2754,-0.282,-0.2814,-0.2807,-0.2756,-0.2704,-0.2712,-0.267,-0.271,-0.2662,-0.2659,-0.2573,-0.2562,-0.2545,-0.2508,-0.25,-0.2465,-0.2462,-0.2461,-0.2459,0,0,0,0,0,0,0,-0.2751,-0.2755,-0.2847,-0.282,-0.2813,-0.2735,-0.2732,-0.2704,-0.2651,-0.2706,-0.2698,-0.2707,-0.2567,-0.2549,-0.2539,-0.2497,-0.2465,-0.2461,-0.2459,-0.2457,-0.2455,-0.2458,0,0,0,0,0,0,-0.2789,-0.2757,-0.2849,-0.2846,-0.2781,-0.2742,-0.2737,-0.2768,-0.2653,-0.2637,-0.271,-0.27,-0.2558,-0.2544,-0.2532,-0.2529,-0.2461,-0.2457,-0.2454,-0.2453,-0.2456,-0.2458,0,0,0,0,0,0,-0.2787,-0.2799,-0.2852,-0.2805,-0.2807,-0.2749,-0.2783,-0.2769,-0.2741,-0.2659,-0.2637,-0.2697,-0.2555,-0.2538,-0.2517,-0.2522,-0.2455,-0.2451,-0.245,-0.2454,-0.2457,-0.2548,0,0,0,0,0,0,-0.2784,-0.2799,-0.2823,-0.2809,-0.2812,-0.2871,-0.2787,-0.277,-0.2757,-0.2743,-0.2642,-0.2622,-0.2551,-0.2524,-0.2513,-0.2515,-0.2448,-0.2447,-0.2452,-0.2456,-0.2542,-0.2554,-0.2565,0,0,0,0,0,-0.278,-0.2835,-0.2826,-0.2836,-0.2852,-0.2874,-0.2868,-0.2806,-0.276,-0.2765,-0.27,-0.2625,-0.2544,-0.2524,-0.251,-0.251,-0.2445,-0.245,-0.2456,-0.2537,-0.2552,-0.2565,0,0,0,0,0,0,-0.2789,-0.2827,-0.2815,-0.2878,-0.2881,-0.2853,-0.2854,-0.2823,-0.2777,-0.2752,-0.2661,-0.2639,-0.2624,-0.2575,-0.2554,-0.253,-0.2481,-0.2484,-0.2548,-0.2561,-0.2573,-0.2516,-0.2444,0,0,0,0,0,-0.2812,-0.2857,-0.2875,-0.2921,-0.2928,-0.2894,-0.2891,-0.2859,-0.2827,-0.2801,-0.2741,-0.268,-0.2643,-0.2607,-0.2574,-0.2564,-0.2482,-0.2558,-0.257,-0.258,-0.2529,-0.244,-0.2437,-0.2476,-0.2476,-0.2476,0,0,-0.2825,-0.2855,-0.2876,-0.2925,-0.2913,-0.2937,-0.2881,-0.289,-0.2888,-0.2793,-0.2767,-0.2727,-0.2657,-0.264,-0.2627,-0.2589,-0.2539,-0.2587,-0.2595,-0.2537,-0.2445,-0.244,-0.2436,-0.248,-0.2479,-0.2479,0,0,-0.2883,-0.2905,-0.2959,-0.2972,-0.2988,-0.297,-0.2983,-0.2969,-0.2933,-0.2937,-0.2858,-0.2822,-0.2781,-0.2711,-0.2675,-0.2738,-0.2617,-0.2738,-0.2723,-0.2641,-0.2634,-0.2628,-0.2563,-0.255,-0.2726,-0.2726,-0.2726,0,-0.289,-0.2948,-0.2974,-0.3025,-0.3004,-0.2993,-0.3003,-0.3007,-0.2983,-0.2929,-0.2943,-0.2836,-0.2807,-0.272,-0.2745,-0.2755,-0.2685,-0.2672,-0.2649,-0.2641,-0.2632,-0.2566,-0.255,-0.2731,-0.2731,-0.273,-0.273,0,-0.2989,-0.3008,-0.3037,-0.3082,-0.3088,-0.3087,-0.3094,-0.3088,-0.3054,-0.3017,-0.295,-0.2918,-0.2821,-0.2842,-0.281,-0.273,-0.2696,-0.2687,-0.2601,-0.2632,-0.2564,-0.2545,-0.2739,-0.2737,-0.2735,-0.2734,0,0,-0.3017,-0.3082,-0.3082,-0.304,-0.3083,-0.3066,-0.3099,-0.3051,-0.2983,-0.3007,-0.2898,-0.2899,-0.2838,-0.2794,-0.2754,-0.2693,-0.2629,-0.2659,-0.2652,-0.257,-0.2435,-0.2363,-0.2335,-0.2598,-0.2595,-0.2592,-0.2426,0,-0.3038,-0.3068,-0.3126,-0.3094,-0.3054,-0.3058,-0.3053,-0.3022,-0.2984,-0.2904,-0.2866,-0.2787,-0.2835,-0.277,-0.2727,-0.2642,-0.2575,-0.2673,-0.2435,-0.2427,-0.2337,-0.2309,-0.219,-0.2025,-0.2408,-0.2404,-0.2402,0,-0.3083,-0.3057,-0.302,-0.2954,-0.2944,-0.295,-0.2827,-0.2843,-0.2781,-0.2753,-0.2695,-0.2657,-0.2591,-0.263,-0.2498,-0.255,-0.2486,-0.2438,-0.2431,-0.2294,-0.2316,-0.2048,-0.1975,-0.1992,-0.2372,-0.2375,-0.2377,0,-0.294,-0.2969,-0.2882,-0.287,-0.2838,-0.2799,-0.2799,-0.275,-0.2699,-0.2642,-0.2577,-0.2516,-0.2457,-0.2392,-0.2362,-0.2399,-0.2197,-0.224,-0.2108,-0.2104,-0.1915,-0.1899,-0.1791,-0.2101,-0.2101,-0.2101,-0.2102,0,-0.2855,-0.2786,-0.2796,-0.2719,-0.2602,-0.2654,-0.2542,-0.2548,-0.2507,-0.2365,-0.2469,-0.2316,-0.2386,-0.23,-0.2282,-0.2136,-0.214,-0.2059,-0.2032,-0.1954,-0.1944,-0.1878,-0.1935,-0.2095,-0.2097,-0.2098,-0.2099,0,-0.2642,-0.2692,-0.2567,-0.2517,-0.2516,-0.2415,-0.2425,-0.2333,-0.2359,-0.2183,-0.2162,-0.2152,-0.2037,-0.2101,-0.1984,-0.2005,-0.1855,-0.184,-0.1765,-0.173,-0.1629,-0.1696,-0.151,-0.1469,-0.1645,-0.1642,-0.1639,0,-0.251,-0.2415,-0.2363,-0.232,-0.229,-0.2218,-0.2164,-0.2224,-0.2118,-0.2,-0.1851,-0.1785,-0.1575,-0.1501,-0.158,-0.1552,-0.1638,-0.1462,-0.1512,-0.1557,-0.1612,-0.1687,-0.1674,-0.1322,-0.1317,-0.1313,-0.131,0,-0.2177,-0.2181,-0.2089,-0.2004,-0.1953,-0.1894,-0.1822,-0.1738,-0.1714,-0.1589,-0.1301,-0.1136,-0.1078,-0.1002,-0.1132,-0.113,-0.1437,-0.1372,-0.1409,-0.1316,-0.139,-0.136,-0.1539,-0.1273,-0.1276,-0.1279,-0.1281,-0.1282,-0.1911,-0.1801,-0.1736,-0.1639,-0.1617,-0.152,-0.1404,-0.1332,-0.1157,-0.0896,-0.0803,-0.0503,-0.0545,-0.0669,-0.0743,-0.0968,-0.1061,-0.1004,-0.1072,-0.1138,-0.1111,-0.1219,-0.094,-0.0941,-0.0943,-0.0944,-0.0945,0,-0.1501,-0.1474,-0.139,-0.1292,-0.1169,-0.1266,-0.1114,-0.0961,-0.0693,-0.0487,-0.0225,0.0009,-0.007,-0.0277,-0.0657,-0.072,-0.0759,-0.077,-0.0852,-0.0845,-0.0894,-0.0894,-0.0602,-0.0602,-0.0602,-0.0602,-0.0602,-0.0602,-0.1286,-0.1109,-0.1096,-0.0847,-0.0815,-0.0586,-0.0475,-0.0326,-0.0153,0.0179,0.0382,0.0497,0.0237,-0.0321,-0.0669,-0.0694,-0.0749,-0.0691,-0.0783,-0.0852,-0.0881,-0.0909,-0.0921,-0.0638,-0.0639,-0.0665,-0.0666,-0.0666]},{"header":{"parameterUnit":"m.s-1","parameterCategory":2,"la1":30.2991,"la2":30.254,"lo1":-89.0895,"lo2":-89.0444,"dy":0.0017,"dx":0.0017,"nx":28,"ny":28,"refTime":"2023-10-21T09:00:00:Z","depth":"0","parameterNumber":3,"parameterNumberName":"V-component_of_CURRENTS"},"data":[0,0,0,0,0,0,0,0,0,0,0,0,0,0,0,0,0,0,0,0,0,0,0,0,0,0,0,0,0,0,0,0,0,0,0,0,0,0,0,0,0,0,0,0,0,0,0,0,0,0,0,0,0,0,0,0,0,0,-0.0207,-0.0205,0,-0.0085,-0.0083,-0.0082,-0.0028,-0.0028,-0.0028,-0.0028,0.0103,0.0107,0.011,0,0,0,0,0,0,0,0,0,0,0,0,0,-0.0401,-0.0397,-0.0207,-0.0205,-0.0203,-0.0085,-0.0083,-0.0082,-0.0028,-0.0028,-0.0028,-0.0028,0.0102,0.0106,0.0111,0,0,0,0,0,0,0,0,0,0,0,0,0,-0.0302,-0.0396,-0.0207,-0.0162,-0.0156,-0.0085,-0.0083,-0.0081,-0.0028,-0.0028,-0.0028,-0.0028,0.0101,0.0106,0.0111,0.0147,0,0,0.0128,0.013,0,0,0,0,0,0,0,0,-0.0308,-0.0295,-0.017,-0.0165,-0.0159,-0.0071,-0.0103,-0.0004,-0.0028,-0.0077,-0.0028,-0.0028,0.0047,0.0056,0.0078,0.0153,0.0159,0.0128,0.0131,0.0134,0.0135,0,0,0,0,0,0,0,-0.0315,-0.03,-0.0159,-0.0168,-0.0161,-0.015,-0.0136,-0.0084,-0.0017,-0.0073,-0.0069,-0.0054,0.005,0.0073,0.0082,0.016,0.0128,0.0133,0.0136,0.0138,0.0268,0.0268,0,0,0,0,0,0,-0.0327,-0.0306,-0.0163,-0.0155,-0.0234,-0.0146,-0.0131,-0.0099,-0.0017,-0.0005,-0.0054,-0.0052,0.0064,0.0076,0.0087,0.0143,0.0134,0.0139,0.0142,0.0267,0.0268,0.0268,0,0,0,0,0,0,-0.0331,-0.0314,-0.0168,-0.0229,-0.0209,-0.0143,-0.0108,-0.0097,-0.0074,-0.0002,0.001,-0.0042,0.0064,0.0079,0.0128,0.0148,0.0141,0.0146,0.0267,0.0267,0.0268,0.025,0,0,0,0,0,0,-0.0337,-0.0316,-0.0302,-0.0229,-0.0206,-0.0134,-0.0107,-0.0095,-0.0064,-0.006,0.0012,0.0024,0.0065,0.012,0.0134,0.0155,0.015,0.0267,0.0267,0.0268,0.025,0.025,0.0249,0,0,0,0,0,-0.0344,-0.0322,-0.0301,-0.0284,-0.0186,-0.0134,-0.0122,-0.0077,-0.0064,-0.0056,-0.0008,0.0022,0.0132,0.0125,0.0141,0.0164,0.0267,0.0267,0.0268,0.0251,0.025,0.0249,0,0,0,0,0,0,-0.0402,-0.0312,-0.0288,-0.024,-0.0196,-0.0125,-0.0111,-0.008,-0.0035,-0.0034,0.0029,0.0045,0.0095,0.0127,0.0117,0.02,0.0203,0.0207,0.0185,0.0184,0.0184,0.0169,0.0155,0,0,0,0,0,-0.0407,-0.0364,-0.0291,-0.0258,-0.0236,-0.0176,-0.015,-0.0121,-0.007,-0.005,0.0003,0.0057,0.011,0.0143,0.0188,0.0239,0.0255,0.0261,0.0261,0.026,0.0258,0.0265,0.0264,0.0269,0.0269,0.0269,0,0,-0.0419,-0.0367,-0.0342,-0.0268,-0.0229,-0.0192,-0.0161,-0.0128,-0.0093,-0.0042,0.0014,0.0055,0.012,0.0174,0.02,0.0206,0.0274,0.0261,0.026,0.0258,0.0265,0.0265,0.0264,0.027,0.027,0.027,0,0,-0.0438,-0.0379,-0.036,-0.0317,-0.0263,-0.0216,-0.0209,-0.0141,-0.011,-0.0056,-0.0009,0.0044,0.0121,0.018,0.0219,0.0243,0.0265,0.025,0.0248,0.0255,0.0255,0.0254,0.0302,0.0306,0.0257,0.0257,0.0257,0,-0.0464,-0.0414,-0.0352,-0.0325,-0.0291,-0.0228,-0.0208,-0.0156,-0.0082,-0.0066,-0.0048,0.0058,0.013,0.0198,0.0221,0.0246,0.025,0.0248,0.0254,0.0253,0.0253,0.0302,0.0307,0.0256,0.0256,0.0256,0.0256,0,-0.0473,-0.0426,-0.0413,-0.0346,-0.0307,-0.0278,-0.0201,-0.017,-0.0126,-0.0081,-0.0028,0.0059,0.0114,0.0158,0.0212,0.0252,0.0258,0.0245,0.0252,0.0251,0.0304,0.0309,0.0255,0.0255,0.0255,0.0255,0,0,-0.0534,-0.0439,-0.0432,-0.0412,-0.0315,-0.0294,-0.0232,-0.0174,-0.016,-0.0086,-0.0066,0.0061,0.008,0.0126,0.0189,0.0227,0.0274,0.0239,0.0239,0.0282,0.0303,0.0371,0.0384,0.0239,0.0239,0.024,0.035,0,-0.0562,-0.0529,-0.0462,-0.0426,-0.04,-0.0321,-0.0284,-0.0227,-0.0165,-0.0129,-0.0043,0.0006,0.0076,0.0101,0.0148,0.0238,0.028,0.0247,0.0301,0.0304,0.036,0.0389,0.0461,0.0569,0.0355,0.0356,0.0357,0,-0.0588,-0.056,-0.0534,-0.0478,-0.0466,-0.0439,-0.0387,-0.0339,-0.026,-0.0221,-0.016,-0.0098,0.0009,0.0042,0.0181,0.0143,0.0222,0.0289,0.0294,0.0363,0.038,0.053,0.0586,0.0693,0.0364,0.0364,0.0363,0,-0.0669,-0.0609,-0.0596,-0.0567,-0.0495,-0.049,-0.0458,-0.0385,-0.0326,-0.0274,-0.022,-0.0156,-0.0061,-0.0004,0.0183,0.016,0.0321,0.03,0.0436,0.0443,0.0522,0.0536,0.0684,0.0368,0.0368,0.0368,0.0368,0,-0.0703,-0.0691,-0.0642,-0.063,-0.0648,-0.0577,-0.0564,-0.0528,-0.043,-0.032,-0.0274,-0.0137,-0.0071,0.0057,0.015,0.0337,0.0295,0.0451,0.0473,0.0523,0.0535,0.0644,0.0678,0.0372,0.0371,0.037,0.037,0,-0.0756,-0.072,-0.0713,-0.0678,-0.0674,-0.0688,-0.0597,-0.0556,-0.0478,-0.0321,-0.0287,-0.0108,0.0057,0.0131,0.0277,0.0355,0.0568,0.0544,0.0626,0.0655,0.0853,0.0882,0.104,0.114,0.069,0.0693,0.0694,0,-0.0757,-0.0759,-0.0761,-0.0761,-0.0738,-0.0727,-0.0689,-0.06,-0.0486,-0.0228,-0.0118,0.0053,0.0291,0.0488,0.0539,0.0643,0.072,0.0797,0.0771,0.0896,0.0943,0.0945,0.1018,0.0886,0.0889,0.0892,0.0894,0,-0.0748,-0.0767,-0.0772,-0.078,-0.0759,-0.0717,-0.0625,-0.053,-0.0333,-0.0184,0.015,0.0354,0.0573,0.0756,0.0825,0.0891,0.0901,0.0859,0.0956,0.1093,0.1136,0.1232,0.0805,0.0919,0.0916,0.0915,0.0913,0.0912,-0.0725,-0.0751,-0.0751,-0.0758,-0.0742,-0.0634,-0.0539,-0.0381,-0.0181,0.0161,0.0348,0.0695,0.0967,0.1085,0.1102,0.118,0.1125,0.1247,0.1272,0.1262,0.1361,0.1011,0.1157,0.1156,0.1155,0.1155,0.1154,0,-0.0611,-0.0651,-0.0691,-0.0669,-0.0611,-0.0614,-0.042,-0.0248,0.0038,0.0305,0.0607,0.1075,0.1295,0.1425,0.152,0.1595,0.1587,0.1637,0.1656,0.171,0.1384,0.1395,0.1637,0.1637,0.1637,0.1637,0.1637,0.1637,-0.0539,-0.0532,-0.0575,-0.049,-0.0479,-0.029,-0.0149,0.0066,0.0298,0.0717,0.1008,0.1236,0.1584,0.1769,0.1905,0.192,0.2053,0.2016,0.2072,0.1836,0.18,0.1766,0.1786,0.2106,0.2107,0.2412,0.2415,0.2417]}],[{"header":{"parameterUnit":"m.s-1","parameterCategory":2,"la1":30.2991,"la2":30.254,"lo1":-89.0895,"lo2":-89.0444,"dy":0.0017,"dx":0.0017,"nx":28,"ny":28,"refTime":"2023-10-21T09:00:00:Z","depth":"2","parameterNumber":2,"parameterNumberName":"U-component_of_CURRENTS"},"data":[0,0,0,0,0,0,0,0,0,0,0,0,0,0,0,0,0,0,0,0,0,0,0,0,0,0,0,0,0,0,0,0,0,0,0,0,0,0,0,0,0,0,0,0,0,0,0,0,0,0,0,0,0,0,0,0,0,0,-0.2609,-0.2609,0,-0.2663,-0.2664,-0.2665,-0.2688,-0.2688,-0.2688,-0.2687,-0.2771,-0.2773,-0.2776,0,0,0,0,0,0,0,0,0,0,0,0,0,-0.2548,-0.2549,-0.2609,-0.2609,-0.261,-0.2663,-0.2664,-0.2665,-0.2688,-0.2688,-0.2688,-0.2687,-0.277,-0.2773,-0.2776,0,0,0,0,0,0,0,0,0,0,0,0,0,-0.2587,-0.255,-0.2609,-0.2627,-0.2629,-0.2663,-0.2664,-0.2665,-0.2688,-0.2688,-0.2688,-0.2687,-0.2769,-0.2773,-0.2776,-0.2804,0,0,-0.2787,-0.2789,0,0,0,0,0,0,0,0,-0.2585,-0.2589,-0.2624,-0.2626,-0.2628,-0.2667,-0.2673,-0.2713,-0.2688,-0.2667,-0.2687,-0.2687,-0.2739,-0.2745,-0.2757,-0.2808,-0.2812,-0.2788,-0.279,-0.2791,-0.2792,0,0,0,0,0,0,0,-0.2582,-0.2587,-0.2631,-0.2624,-0.2627,-0.264,-0.2646,-0.2681,-0.2705,-0.2669,-0.267,-0.2675,-0.274,-0.2753,-0.2759,-0.2813,-0.2787,-0.2791,-0.2793,-0.2794,-0.288,-0.288,0,0,0,0,0,0,-0.2572,-0.2585,-0.263,-0.2633,-0.2604,-0.2642,-0.2647,-0.2656,-0.2704,-0.2711,-0.2675,-0.2676,-0.2747,-0.2755,-0.2762,-0.2753,-0.2791,-0.2795,-0.2797,-0.2879,-0.288,-0.288,0,0,0,0,0,0,-0.2571,-0.2576,-0.2628,-0.2609,-0.2616,-0.2643,-0.2653,-0.2657,-0.267,-0.2708,-0.2715,-0.2682,-0.2747,-0.2757,-0.2793,-0.2759,-0.2796,-0.28,-0.2879,-0.288,-0.288,-0.2765,0,0,0,0,0,0,-0.2569,-0.2575,-0.2588,-0.2608,-0.2617,-0.2631,-0.2653,-0.2659,-0.2673,-0.2674,-0.2717,-0.2725,-0.2748,-0.2788,-0.2797,-0.2764,-0.2802,-0.2879,-0.2879,-0.288,-0.2769,-0.2762,-0.2755,0,0,0,0,0,-0.2567,-0.257,-0.2589,-0.2595,-0.2631,-0.263,-0.2635,-0.2655,-0.2673,-0.2668,-0.2709,-0.2723,-0.2795,-0.2791,-0.2802,-0.2769,-0.2879,-0.2879,-0.288,-0.2772,-0.2763,-0.2755,0,0,0,0,0,0,-0.2534,-0.2573,-0.2594,-0.2606,-0.2614,-0.2633,-0.2645,-0.2655,-0.2684,-0.2701,-0.2733,-0.2743,-0.2761,-0.2794,-0.2789,-0.2799,-0.2837,-0.2839,-0.2751,-0.2743,-0.2736,-0.2695,-0.2805,0,0,0,0,0,-0.2538,-0.255,-0.2583,-0.2581,-0.2604,-0.2628,-0.2638,-0.2649,-0.2673,-0.2686,-0.2745,-0.2782,-0.2771,-0.278,-0.2816,-0.2825,-0.2819,-0.2812,-0.2805,-0.2798,-0.2775,-0.2747,-0.2734,-0.288,-0.288,-0.288,0,0,-0.2507,-0.2541,-0.2538,-0.2576,-0.26,-0.2598,-0.2633,-0.2646,-0.2637,-0.2693,-0.2748,-0.2777,-0.2775,-0.2779,-0.2788,-0.2798,-0.2754,-0.2799,-0.2792,-0.2772,-0.2746,-0.2731,-0.2717,-0.2881,-0.2881,-0.2881,0,0,-0.2451,-0.2507,-0.2503,-0.2525,-0.2567,-0.2581,-0.2582,-0.2643,-0.2671,-0.2705,-0.2729,-0.2732,-0.279,-0.2757,-0.2735,-0.2715,-0.2727,-0.2743,-0.2658,-0.2631,-0.2617,-0.2605,-0.2564,-0.255,-0.2727,-0.2727,-0.2727,0,-0.2414,-0.2432,-0.2493,-0.2506,-0.2519,-0.2567,-0.2557,-0.2579,-0.2645,-0.2665,-0.2713,-0.2743,-0.2754,-0.2666,-0.265,-0.2689,-0.2686,-0.2678,-0.2616,-0.2604,-0.2594,-0.2555,-0.254,-0.2721,-0.2722,-0.2723,-0.2723,0,-0.2361,-0.2385,-0.2389,-0.2422,-0.2438,-0.2441,-0.2485,-0.2532,-0.2587,-0.2606,-0.2617,-0.264,-0.2642,-0.2635,-0.2621,-0.2543,-0.2568,-0.2614,-0.2622,-0.2571,-0.2535,-0.2521,-0.2714,-0.2716,-0.2717,-0.2719,0,0,-0.225,-0.2333,-0.2336,-0.2363,-0.2408,-0.2416,-0.242,-0.2432,-0.2446,-0.2503,-0.2503,-0.2456,-0.2499,-0.2477,-0.2481,-0.2434,-0.2341,-0.2482,-0.2483,-0.2414,-0.2273,-0.2199,-0.2177,-0.2384,-0.2382,-0.238,-0.227,0,-0.219,-0.2208,-0.2255,-0.225,-0.2274,-0.2334,-0.2336,-0.2357,-0.2402,-0.2441,-0.2414,-0.2426,-0.2424,-0.2433,-0.2374,-0.2379,-0.2304,-0.2365,-0.2357,-0.2356,-0.2273,-0.2158,-0.2019,-0.1903,-0.2257,-0.2255,-0.2253,0,-0.2115,-0.2163,-0.2158,-0.2226,-0.2243,-0.2231,-0.2278,-0.2289,-0.2312,-0.2359,-0.2338,-0.237,-0.2287,-0.2328,-0.2226,-0.2277,-0.2245,-0.2233,-0.223,-0.2186,-0.2255,-0.2019,-0.1865,-0.2231,-0.2233,-0.2234,-0.2236,0,-0.2032,-0.2082,-0.2087,-0.2107,-0.2183,-0.2193,-0.2218,-0.2256,-0.2281,-0.2305,-0.2327,-0.2276,-0.2263,-0.2213,-0.2176,-0.2212,-0.2082,-0.2145,-0.2025,-0.2022,-0.1909,-0.1899,-0.2038,-0.2038,-0.2039,-0.2039,-0.2039,0,-0.1956,-0.1962,-0.2058,-0.2074,-0.2086,-0.2156,-0.2161,-0.2199,-0.2239,-0.2242,-0.2276,-0.2263,-0.2239,-0.2182,-0.2147,-0.2021,-0.2052,-0.196,-0.1968,-0.1867,-0.1855,-0.2165,-0.2181,-0.2035,-0.2036,-0.2037,-0.2037,0,-0.185,-0.1906,-0.1931,-0.2027,-0.2046,-0.2056,-0.2116,-0.2121,-0.2189,-0.2192,-0.2197,-0.2226,-0.2144,-0.2091,-0.2012,-0.197,-0.1885,-0.1831,-0.1701,-0.1693,-0.1849,-0.1862,-0.168,-0.1676,-0.1672,-0.167,-0.1667,0,-0.1786,-0.1798,-0.1886,-0.1886,-0.1921,-0.1955,-0.1964,-0.2062,-0.2075,-0.216,-0.2141,-0.2102,-0.2061,-0.1908,-0.1777,-0.1643,-0.1741,-0.148,-0.1502,-0.1775,-0.1803,-0.1821,-0.1837,-0.1311,-0.1306,-0.1302,-0.1298,0,-0.1683,-0.1718,-0.1743,-0.1762,-0.1771,-0.1796,-0.183,-0.1845,-0.1955,-0.1984,-0.2024,-0.2023,-0.188,-0.1679,-0.1499,-0.142,-0.1495,-0.139,-0.1681,-0.1434,-0.1421,-0.1452,-0.148,-0.1261,-0.1265,-0.1268,-0.127,-0.1271,-0.1578,-0.1568,-0.1596,-0.1597,-0.1611,-0.1612,-0.1586,-0.1649,-0.1672,-0.1693,-0.182,-0.1757,-0.1727,-0.1353,-0.1233,-0.1087,-0.1197,-0.117,-0.1185,-0.1204,-0.1191,-0.1174,-0.0964,-0.0966,-0.0968,-0.0969,-0.097,0,-0.1435,-0.1432,-0.1423,-0.1413,-0.1372,-0.1444,-0.1464,-0.1419,-0.1405,-0.1462,-0.1492,-0.133,-0.1187,-0.1115,-0.0829,-0.0787,-0.0803,-0.0762,-0.0799,-0.0834,-0.0866,-0.084,-0.0518,-0.0517,-0.0516,-0.0515,0,0,-0.1348,-0.1288,-0.1296,-0.118,-0.117,-0.1076,-0.1066,-0.1049,-0.1059,-0.1017,-0.0995,-0.1117,-0.1122,-0.0848,-0.0761,-0.0595,-0.0719,-0.0553,-0.0912,-0.0993,-0.1024,-0.1087,-0.1083,0,0,0,0,0]},{"header":{"parameterUnit":"m.s-1","parameterCategory":2,"la1":30.2991,"la2":30.254,"lo1":-89.0895,"lo2":-89.0444,"dy":0.0017,"dx":0.0017,"nx":28,"ny":28,"refTime":"2023-10-21T09:00:00:Z","depth":"2","parameterNumber":3,"parameterNumberName":"V-component_of_CURRENTS"},"data":[0,0,0,0,0,0,0,0,0,0,0,0,0,0,0,0,0,0,0,0,0,0,0,0,0,0,0,0,0,0,0,0,0,0,0,0,0,0,0,0,0,0,0,0,0,0,0,0,0,0,0,0,0,0,0,0,0,0,-0.0329,-0.0328,0,-0.0258,-0.0257,-0.0255,-0.0179,-0.0178,-0.0178,-0.0177,0.0012,0.0016,0.0021,0,0,0,0,0,0,0,0,0,0,0,0,0,-0.0332,-0.0333,-0.0329,-0.0328,-0.0328,-0.0258,-0.0257,-0.0255,-0.0179,-0.0178,-0.0178,-0.0177,0.0011,0.0016,0.0021,0,0,0,0,0,0,0,0,0,0,0,0,0,-0.0298,-0.0333,-0.0329,-0.0286,-0.0282,-0.0258,-0.0257,-0.0255,-0.0179,-0.0178,-0.0177,-0.0177,0.0009,0.0015,0.0022,0.0047,0,0,0.0043,0.0046,0,0,0,0,0,0,0,0,-0.03,-0.0297,-0.0292,-0.0289,-0.0284,-0.0231,-0.0189,-0.015,-0.0179,-0.0212,-0.0177,-0.0176,-0.0063,-0.005,-0.0032,0.0056,0.0064,0.0043,0.0047,0.005,0.0052,0,0,0,0,0,0,0,-0.0303,-0.0299,-0.0295,-0.0292,-0.0287,-0.0248,-0.0242,-0.0181,-0.0136,-0.0209,-0.0205,-0.0206,-0.0059,-0.0039,-0.0027,0.0067,0.0043,0.0049,0.0053,0.0056,0.0232,0.0232,0,0,0,0,0,0,-0.0328,-0.0302,-0.0297,-0.0293,-0.0297,-0.025,-0.0243,-0.0244,-0.0139,-0.0125,-0.0207,-0.0203,-0.0051,-0.0035,-0.002,0.0038,0.005,0.0057,0.006,0.0231,0.0232,0.0233,0,0,0,0,0,0,-0.0328,-0.0328,-0.03,-0.03,-0.0295,-0.0251,-0.0253,-0.0244,-0.0226,-0.014,-0.0122,-0.0201,-0.005,-0.0029,0.0028,0.0046,0.006,0.0066,0.023,0.0231,0.0232,0.0141,0,0,0,0,0,0,-0.0328,-0.0328,-0.0333,-0.0302,-0.0296,-0.0297,-0.0255,-0.0243,-0.0231,-0.0225,-0.0129,-0.0111,-0.0047,0.0018,0.0035,0.0055,0.0071,0.023,0.0231,0.0232,0.0143,0.0139,0.0135,0,0,0,0,0,-0.0329,-0.0346,-0.0334,-0.0333,-0.0306,-0.0299,-0.0292,-0.0253,-0.0232,-0.0232,-0.0166,-0.0114,0.0038,0.0022,0.0043,0.0066,0.0229,0.0231,0.0232,0.0145,0.014,0.0135,0,0,0,0,0,0,-0.036,-0.0339,-0.0325,-0.0338,-0.0325,-0.0288,-0.0283,-0.0264,-0.0213,-0.0199,-0.0116,-0.0094,-0.0026,0.0025,0.0006,0.0122,0.0147,0.0152,0.0074,0.007,0.0066,0.005,0.0077,0,0,0,0,0,-0.0371,-0.0373,-0.0352,-0.0366,-0.0356,-0.0321,-0.0312,-0.0291,-0.0249,-0.0226,-0.015,-0.007,-0.0004,0.0032,0.0108,0.0155,0.0197,0.0188,0.0184,0.018,0.0182,0.0237,0.0237,0.0237,0.0237,0.0237,0,0,-0.0394,-0.0381,-0.0385,-0.0372,-0.035,-0.0339,-0.0312,-0.0306,-0.0285,-0.0212,-0.014,-0.0078,0.0006,0.0071,0.0105,0.0113,0.0202,0.0181,0.0177,0.0182,0.0238,0.0238,0.0238,0.0238,0.0238,0.0238,0,0,-0.0435,-0.0421,-0.0428,-0.0414,-0.0393,-0.0365,-0.037,-0.0324,-0.0286,-0.0236,-0.0167,-0.0111,0.0001,0.0059,0.01,0.0115,0.0181,0.015,0.0112,0.0163,0.0163,0.0164,0.0206,0.0211,0.0142,0.0141,0.0141,0,-0.046,-0.0461,-0.0434,-0.043,-0.0416,-0.0381,-0.0379,-0.0341,-0.0279,-0.0243,-0.022,-0.0067,-0.0003,0.0064,0.0069,0.0105,0.0142,0.0117,0.0155,0.0156,0.0158,0.0202,0.0208,0.0137,0.0138,0.0138,0.0139,0,-0.0496,-0.0491,-0.0495,-0.0467,-0.0452,-0.0449,-0.0398,-0.0361,-0.0311,-0.0265,-0.018,-0.0102,-0.0015,0.0013,0.0043,0.0095,0.0118,0.0142,0.0157,0.0152,0.0199,0.0207,0.0131,0.0133,0.0134,0.0135,0,0,-0.0562,-0.0525,-0.0525,-0.051,-0.0466,-0.046,-0.0417,-0.0366,-0.0332,-0.0258,-0.0204,-0.0112,-0.0071,-0.0023,0.0028,0.0062,0.0095,0.0096,0.0101,0.012,0.0204,0.0236,0.0248,0.0121,0.0123,0.0124,0.0226,0,-0.0593,-0.0593,-0.056,-0.0552,-0.0541,-0.0484,-0.0447,-0.0396,-0.0331,-0.0263,-0.0188,-0.0115,-0.0083,-0.005,-0.0011,0.0079,0.0115,0.0065,0.0224,0.0228,0.0242,0.0259,0.0225,0.0316,0.0235,0.0236,0.0237,0,-0.0626,-0.062,-0.0618,-0.0574,-0.0562,-0.0552,-0.0482,-0.0446,-0.0351,-0.0298,-0.0226,-0.0153,-0.0082,-0.0059,0.0074,0.004,0.0114,0.0173,0.0179,0.0248,0.0276,0.0314,0.0335,0.0252,0.0251,0.025,0.0249,0,-0.0672,-0.0653,-0.0648,-0.0637,-0.0588,-0.0571,-0.0542,-0.046,-0.0423,-0.0325,-0.0283,-0.0179,-0.0115,-0.0021,0.0104,0.0092,0.025,0.0256,0.0354,0.0357,0.0382,0.0386,0.0349,0.0349,0.0349,0.0349,0.0348,0,-0.07,-0.0699,-0.0674,-0.0676,-0.0672,-0.0619,-0.0596,-0.0544,-0.0471,-0.0433,-0.0314,-0.0253,-0.0102,0.0011,0.0105,0.0261,0.0259,0.0357,0.0391,0.035,0.0349,0.034,0.0338,0.0352,0.0352,0.0351,0.035,0,-0.0739,-0.072,-0.0726,-0.07,-0.0694,-0.0696,-0.0657,-0.0636,-0.0554,-0.0503,-0.0475,-0.03,-0.014,0.0013,0.019,0.0276,0.0409,0.0464,0.0402,0.0427,0.0477,0.0469,0.0582,0.0584,0.0586,0.0587,0.0589,0,-0.0752,-0.076,-0.0765,-0.0777,-0.0769,-0.0765,-0.0759,-0.0694,-0.0668,-0.0533,-0.0509,-0.0325,-0.0175,0.0113,0.0291,0.0484,0.0473,0.0558,0.0533,0.0482,0.0504,0.0493,0.0483,0.0527,0.0528,0.0529,0.0529,0,-0.0786,-0.0792,-0.08,-0.0833,-0.0846,-0.0854,-0.084,-0.083,-0.0746,-0.0677,-0.0525,-0.0387,-0.0082,0.0161,0.0411,0.0503,0.0522,0.0576,0.0559,0.0471,0.0439,0.0457,0.0448,0.0534,0.0533,0.0533,0.0533,0.0532,-0.0814,-0.0839,-0.0856,-0.0883,-0.0905,-0.0921,-0.0923,-0.088,-0.083,-0.0681,-0.0566,-0.032,-0.0094,0.03,0.0458,0.0611,0.0607,0.063,0.0625,0.0621,0.0593,0.0566,0.0679,0.0679,0.068,0.068,0.068,0,-0.0846,-0.0867,-0.0898,-0.0935,-0.0966,-0.0963,-0.0957,-0.0927,-0.0857,-0.0663,-0.0497,-0.0247,0.0034,0.028,0.054,0.0678,0.0644,0.0681,0.0611,0.0606,0.0601,0.0569,0.0651,0.0652,0.0652,0.0652,0,0,-0.0866,-0.0899,-0.0916,-0.0971,-0.0997,-0.1016,-0.1011,-0.0941,-0.0802,-0.0597,-0.0395,-0.0179,0.0101,0.0259,0.0422,0.0568,0.0547,0.0564,0.0572,0.0464,0.0459,0.0556,0.05,0,0,0,0,0]}],[{"header":{"parameterUnit":"m.s-1","parameterCategory":2,"la1":30.2991,"la2":30.254,"lo1":-89.0895,"lo2":-89.0444,"dy":0.0017,"dx":0.0017,"nx":28,"ny":28,"refTime":"2023-10-21T09:00:00:Z","depth":"4","parameterNumber":2,"parameterNumberName":"U-component_of_CURRENTS"},"data":[0,0,0,0,0,0,0,0,0,0,0,0,0,0,0,0,0,0,0,0,0,0,0,0,0,0,0,0,0,0,0,0,0,0,0,0,0,0,0,0,0,0,0,0,0,0,0,0,0,0,0,0,0,0,0,0,0,0,-0.136,-0.1361,0,-0.1419,-0.142,-0.1421,-0.147,-0.147,-0.1471,-0.1471,-0.1547,-0.1549,-0.155,0,0,0,0,0,0,0,0,0,0,0,0,0,-0.1289,-0.129,-0.136,-0.1361,-0.1361,-0.1419,-0.142,-0.1421,-0.147,-0.147,-0.1471,-0.1471,-0.1547,-0.1548,-0.1551,0,0,0,0,0,0,0,0,0,0,0,0,0,-0.1332,-0.129,-0.136,-0.1391,-0.1395,-0.1419,-0.142,-0.1421,-0.147,-0.1471,-0.1471,-0.1472,-0.1546,-0.1548,-0.1551,-0.1555,0,0,-0.1558,-0.156,0,0,0,0,0,0,0,0,-0.133,-0.1335,-0.1386,-0.1389,-0.1393,-0.1436,-0.1423,-0.1466,-0.147,-0.1443,-0.1471,-0.1472,-0.151,-0.1516,-0.1528,-0.1559,-0.1562,-0.1559,-0.156,-0.1561,-0.1562,0,0,0,0,0,0,0,-0.1327,-0.1333,-0.1385,-0.1387,-0.1391,-0.1402,-0.1409,-0.1431,-0.1474,-0.1445,-0.1449,-0.1453,-0.1512,-0.1525,-0.153,-0.1563,-0.1559,-0.1561,-0.1562,-0.1563,-0.1647,-0.1648,0,0,0,0,0,0,-0.1316,-0.133,-0.1383,-0.1387,-0.136,-0.1403,-0.1411,-0.1423,-0.1474,-0.1481,-0.1452,-0.1455,-0.152,-0.1527,-0.1533,-0.1598,-0.1561,-0.1564,-0.1565,-0.1646,-0.1647,-0.1648,0,0,0,0,0,0,-0.1314,-0.132,-0.1381,-0.1358,-0.1366,-0.1403,-0.1417,-0.1424,-0.1462,-0.1478,-0.1487,-0.1485,-0.1521,-0.1529,-0.1568,-0.1599,-0.1565,-0.1567,-0.1645,-0.1647,-0.1648,-0.1693,0,0,0,0,0,0,-0.1312,-0.132,-0.1332,-0.1357,-0.1367,-0.1407,-0.1417,-0.1425,-0.1461,-0.1466,-0.1509,-0.1515,-0.1522,-0.1564,-0.157,-0.1602,-0.1569,-0.1644,-0.1646,-0.1647,-0.169,-0.1695,-0.1699,0,0,0,0,0,-0.1309,-0.1326,-0.1333,-0.134,-0.1381,-0.1408,-0.1414,-0.1443,-0.1462,-0.148,-0.1508,-0.1515,-0.1577,-0.1567,-0.1574,-0.1607,-0.1644,-0.1645,-0.1647,-0.1688,-0.1694,-0.1699,0,0,0,0,0,0,-0.1301,-0.1333,-0.1341,-0.1367,-0.1389,-0.1416,-0.1437,-0.1457,-0.1495,-0.1509,-0.1526,-0.1534,-0.1577,-0.1583,-0.1571,-0.1633,-0.1611,-0.1614,-0.164,-0.1646,-0.165,-0.1643,-0.1571,0,0,0,0,0,-0.1303,-0.1329,-0.1351,-0.1374,-0.1386,-0.1416,-0.1435,-0.1457,-0.1487,-0.1506,-0.1535,-0.1563,-0.1585,-0.1609,-0.1624,-0.1664,-0.1648,-0.1689,-0.1693,-0.1697,-0.1695,-0.1703,-0.1708,-0.1653,-0.1653,-0.1653,0,0,-0.1303,-0.1327,-0.134,-0.1374,-0.1397,-0.142,-0.1431,-0.1468,-0.1495,-0.1507,-0.1561,-0.158,-0.1596,-0.1635,-0.1656,-0.1651,-0.17,-0.1699,-0.1702,-0.1698,-0.1705,-0.171,-0.1715,-0.1654,-0.1654,-0.1654,0,0,-0.1317,-0.1341,-0.1365,-0.1388,-0.1425,-0.1441,-0.1456,-0.1497,-0.1524,-0.1566,-0.1581,-0.1613,-0.1658,-0.1673,-0.1685,-0.1723,-0.1718,-0.1741,-0.1771,-0.178,-0.1784,-0.1788,-0.1756,-0.1757,-0.1752,-0.1752,-0.1752,0,-0.1319,-0.1352,-0.1375,-0.1404,-0.1432,-0.1453,-0.1487,-0.1507,-0.1557,-0.1592,-0.1587,-0.1661,-0.1668,-0.1719,-0.1729,-0.1734,-0.173,-0.1752,-0.1786,-0.1789,-0.1793,-0.1759,-0.1759,-0.1755,-0.1754,-0.1754,-0.1754,0,-0.1344,-0.1377,-0.1395,-0.1439,-0.1471,-0.1505,-0.1533,-0.1574,-0.1608,-0.1633,-0.1694,-0.1701,-0.1747,-0.1756,-0.1753,-0.1795,-0.178,-0.1785,-0.1772,-0.1801,-0.1763,-0.1763,-0.1758,-0.1757,-0.1756,-0.1756,0,0,-0.1331,-0.1401,-0.141,-0.1446,-0.15,-0.1531,-0.1581,-0.1637,-0.1684,-0.1715,-0.1772,-0.1797,-0.1812,-0.1824,-0.1832,-0.1837,-0.1838,-0.1828,-0.1827,-0.1796,-0.1839,-0.1706,-0.1692,-0.1865,-0.1866,-0.1866,-0.1797,0,-0.1346,-0.1414,-0.1447,-0.1512,-0.1548,-0.1598,-0.1643,-0.17,-0.174,-0.1791,-0.1808,-0.1849,-0.1834,-0.1861,-0.1866,-0.1848,-0.1843,-0.1855,-0.1816,-0.1814,-0.1693,-0.1689,-0.1868,-0.1797,-0.1796,-0.1796,-0.1796,0,-0.1349,-0.1404,-0.1477,-0.1568,-0.1591,-0.1633,-0.1736,-0.1776,-0.1842,-0.1875,-0.1921,-0.1928,-0.1943,-0.1917,-0.1898,-0.1915,-0.1879,-0.1852,-0.185,-0.1709,-0.168,-0.1766,-0.1795,-0.1795,-0.1795,-0.1795,-0.1795,0,-0.1328,-0.1419,-0.1488,-0.1518,-0.1618,-0.1676,-0.1731,-0.1813,-0.1847,-0.1924,-0.1944,-0.1983,-0.1975,-0.1963,-0.1894,-0.1912,-0.1846,-0.1864,-0.1706,-0.1696,-0.1818,-0.1815,-0.1843,-0.1843,-0.1844,-0.1844,-0.1844,0,-0.1319,-0.1372,-0.1488,-0.1524,-0.1603,-0.1686,-0.176,-0.1824,-0.1893,-0.1909,-0.1977,-0.1969,-0.1987,-0.1948,-0.1907,-0.1779,-0.1854,-0.1694,-0.167,-0.1835,-0.1835,-0.1816,-0.1813,-0.1841,-0.1842,-0.1842,-0.1843,0,-0.1266,-0.1344,-0.1421,-0.1551,-0.1588,-0.1645,-0.1742,-0.1774,-0.1867,-0.1884,-0.1902,-0.1947,-0.1884,-0.1865,-0.1815,-0.1757,-0.1678,-0.1617,-0.176,-0.1748,-0.1521,-0.1522,-0.1443,-0.1438,-0.1433,-0.143,-0.1427,0,-0.124,-0.128,-0.1416,-0.1443,-0.1499,-0.1586,-0.1618,-0.1735,-0.175,-0.1836,-0.1812,-0.1805,-0.1803,-0.1621,-0.1633,-0.1538,-0.152,-0.149,-0.1534,-0.1496,-0.1481,-0.1489,-0.1496,-0.142,-0.1418,-0.1417,-0.1416,0,-0.118,-0.124,-0.1296,-0.1355,-0.1402,-0.1448,-0.1508,-0.1512,-0.1616,-0.1714,-0.1674,-0.1646,-0.1562,-0.1514,-0.1438,-0.1383,-0.1526,-0.1444,-0.1454,-0.1495,-0.1466,-0.1458,-0.147,-0.1401,-0.1403,-0.1404,-0.1405,0,-0.1114,-0.113,-0.1196,-0.1234,-0.1281,-0.128,-0.1343,-0.1354,-0.1395,-0.1507,-0.148,-0.1484,-0.1532,-0.1428,-0.1362,-0.1288,-0.1278,-0.1271,-0.129,-0.1307,-0.1293,-0.1239,-0.1067,0,0,0,0,0,-0.1037,-0.1033,-0.1059,-0.1084,-0.1124,-0.1152,-0.1239,-0.1303,-0.141,-0.1337,-0.1414,-0.1336,-0.1263,-0.1277,-0.1162,-0.1271,-0.1265,-0.1137,-0.1264,-0.1315,-0.1333,-0.1328,0,0,0,0,0,0,-0.0973,-0.0996,-0.1011,-0.0942,-0.0926,-0.0951,-0.1003,-0.1086,-0.1068,-0.1189,-0.1144,-0.1251,-0.1177,-0.1272,-0.1124,-0.1123,-0.118,-0.1155,-0.1151,-0.1305,-0.1321,-0.1336,-0.1337,0,0,0,0,0]},{"header":{"parameterUnit":"m.s-1","parameterCategory":2,"la1":30.2991,"la2":30.254,"lo1":-89.0895,"lo2":-89.0444,"dy":0.0017,"dx":0.0017,"nx":28,"ny":28,"refTime":"2023-10-21T09:00:00:Z","depth":"4","parameterNumber":3,"parameterNumberName":"V-component_of_CURRENTS"},"data":[0,0,0,0,0,0,0,0,0,0,0,0,0,0,0,0,0,0,0,0,0,0,0,0,0,0,0,0,0,0,0,0,0,0,0,0,0,0,0,0,0,0,0,0,0,0,0,0,0,0,0,0,0,0,0,0,0,0,-0.0354,-0.0354,0,-0.0339,-0.0338,-0.0338,-0.0305,-0.0305,-0.0304,-0.0304,-0.0265,-0.0264,-0.0263,0,0,0,0,0,0,0,0,0,0,0,0,0,-0.0319,-0.032,-0.0354,-0.0354,-0.0354,-0.0339,-0.0338,-0.0338,-0.0305,-0.0305,-0.0304,-0.0304,-0.0265,-0.0264,-0.0263,0,0,0,0,0,0,0,0,0,0,0,0,0,-0.032,-0.032,-0.0354,-0.0338,-0.0336,-0.0339,-0.0338,-0.0338,-0.0306,-0.0305,-0.0304,-0.0303,-0.0265,-0.0264,-0.0263,-0.0272,0,0,-0.0261,-0.026,0,0,0,0,0,0,0,0,-0.032,-0.0321,-0.034,-0.0339,-0.0337,-0.0325,-0.0311,-0.0315,-0.0306,-0.0315,-0.0304,-0.0303,-0.0284,-0.0282,-0.0278,-0.027,-0.0269,-0.026,-0.026,-0.026,-0.0259,0,0,0,0,0,0,0,-0.032,-0.0321,-0.0346,-0.034,-0.0338,-0.0318,-0.0318,-0.0312,-0.0302,-0.0314,-0.0312,-0.0314,-0.0283,-0.0279,-0.0277,-0.0268,-0.0261,-0.026,-0.0259,-0.0259,-0.0257,-0.0258,0,0,0,0,0,0,-0.0329,-0.0322,-0.0347,-0.0346,-0.0329,-0.032,-0.0319,-0.0328,-0.0303,-0.0299,-0.0315,-0.0312,-0.0281,-0.0278,-0.0275,-0.0261,-0.026,-0.0259,-0.0258,-0.0257,-0.0257,-0.0258,0,0,0,0,0,0,-0.0328,-0.0332,-0.0347,-0.0334,-0.0335,-0.0322,-0.0331,-0.0328,-0.0327,-0.0303,-0.0298,-0.0318,-0.028,-0.0277,-0.0279,-0.026,-0.0258,-0.0258,-0.0256,-0.0257,-0.0258,-0.0247,0,0,0,0,0,0,-0.0327,-0.0332,-0.0344,-0.0335,-0.0336,-0.0352,-0.0332,-0.0328,-0.033,-0.0327,-0.0305,-0.03,-0.0279,-0.028,-0.0278,-0.0259,-0.0257,-0.0255,-0.0256,-0.0257,-0.0247,-0.0247,-0.0248,0,0,0,0,0,-0.0326,-0.0347,-0.0345,-0.0348,-0.0353,-0.0353,-0.0352,-0.0338,-0.0331,-0.0334,-0.0323,-0.0301,-0.0284,-0.0281,-0.0277,-0.0257,-0.0255,-0.0256,-0.0257,-0.0246,-0.0247,-0.0248,0,0,0,0,0,0,-0.0339,-0.0346,-0.0343,-0.0365,-0.0361,-0.0348,-0.0354,-0.0346,-0.034,-0.034,-0.0314,-0.0309,-0.0302,-0.0293,-0.029,-0.0263,-0.0263,-0.0264,-0.0256,-0.0257,-0.0257,-0.0238,-0.0256,0,0,0,0,0,-0.0349,-0.0365,-0.0363,-0.038,-0.0381,-0.037,-0.037,-0.0362,-0.0356,-0.0352,-0.0335,-0.032,-0.0305,-0.0293,-0.0285,-0.0275,-0.0239,-0.026,-0.0261,-0.0261,-0.0246,-0.017,-0.0161,-0.0261,-0.0261,-0.0261,0,0,-0.036,-0.0365,-0.0375,-0.0383,-0.0379,-0.038,-0.0367,-0.0374,-0.0367,-0.035,-0.0339,-0.0328,-0.0307,-0.0291,-0.0285,-0.0279,-0.0221,-0.0263,-0.0263,-0.0246,-0.017,-0.0159,-0.015,-0.0262,-0.0262,-0.0262,0,0,-0.0381,-0.0393,-0.0408,-0.0406,-0.0408,-0.0399,-0.0404,-0.0396,-0.0384,-0.0384,-0.036,-0.0337,-0.0331,-0.029,-0.0274,-0.0277,-0.0233,-0.0281,-0.0254,-0.0181,-0.0171,-0.0162,-0.0125,-0.0113,-0.0272,-0.0272,-0.0272,0,-0.0392,-0.0408,-0.0411,-0.0418,-0.0414,-0.0408,-0.0411,-0.0402,-0.0393,-0.0369,-0.0385,-0.033,-0.0321,-0.026,-0.0263,-0.0271,-0.0237,-0.0249,-0.0178,-0.0168,-0.0158,-0.0122,-0.0108,-0.0272,-0.0272,-0.0272,-0.0272,0,-0.0416,-0.0426,-0.0434,-0.0437,-0.0433,-0.0441,-0.0426,-0.0416,-0.0408,-0.0382,-0.0339,-0.0321,-0.0276,-0.0273,-0.0272,-0.0195,-0.0198,-0.0191,-0.0167,-0.0146,-0.0112,-0.0097,-0.0271,-0.0271,-0.0271,-0.0271,0,0,-0.0448,-0.045,-0.0453,-0.045,-0.0444,-0.0445,-0.0426,-0.0393,-0.0367,-0.0348,-0.0296,-0.0266,-0.0238,-0.0218,-0.0198,-0.0139,-0.0062,-0.0138,-0.0135,-0.0087,0.0082,0.0051,0.0063,-0.0034,-0.0031,-0.0029,0.0071,0,-0.0462,-0.0478,-0.0468,-0.0471,-0.0475,-0.0449,-0.0429,-0.0395,-0.0365,-0.0318,-0.0262,-0.0225,-0.0221,-0.0203,-0.0135,-0.0089,-0.002,-0.0091,0.0041,0.0045,0.0029,0.0081,-0.0019,0.0082,0.0086,0.0088,0.009,0,-0.0485,-0.0491,-0.05,-0.0478,-0.0476,-0.0474,-0.0426,-0.0407,-0.0329,-0.0301,-0.0227,-0.019,-0.0105,-0.0114,0.0025,-0.0021,0.0038,0.0078,0.0084,0.0068,0.0043,0.0061,0.0117,0.0114,0.0113,0.0111,0.0109,0,-0.0507,-0.0508,-0.0514,-0.0513,-0.0492,-0.048,-0.0465,-0.0401,-0.038,-0.0287,-0.0261,-0.0142,-0.0104,0.0004,0.0074,0.0061,0.022,0.0214,0.0252,0.0249,0.0242,0.0231,0.0344,0.0344,0.0343,0.0343,0.0343,0,-0.0521,-0.0529,-0.0532,-0.0539,-0.0541,-0.051,-0.0493,-0.0452,-0.0392,-0.0362,-0.026,-0.0216,-0.0071,0.0025,0.0103,0.0214,0.0253,0.0277,0.029,0.0236,0.0224,0.0251,0.0239,0.0347,0.0346,0.0345,0.0345,0,-0.0541,-0.0542,-0.056,-0.0555,-0.0557,-0.0564,-0.0549,-0.053,-0.0466,-0.0424,-0.04,-0.0262,-0.0132,0.0006,0.0174,0.0233,0.0347,0.0382,0.03,0.0302,0.0319,0.0306,0.0447,0.0448,0.0448,0.0448,0.0448,0,-0.0549,-0.0562,-0.0592,-0.0612,-0.0617,-0.0625,-0.0627,-0.058,-0.0559,-0.0465,-0.0445,-0.0303,-0.0205,0.0018,0.0161,0.0348,0.0365,0.0423,0.0397,0.034,0.0339,0.0325,0.0313,0.0448,0.0448,0.0448,0.0448,0,-0.0568,-0.0589,-0.0607,-0.0654,-0.0679,-0.0696,-0.0696,-0.0686,-0.0622,-0.0577,-0.0471,-0.0336,-0.0179,0.0006,0.0161,0.0285,0.0384,0.0424,0.0425,0.0401,0.0343,0.0338,0.0325,0.0448,0.0448,0.0448,0.0448,0,-0.0591,-0.0619,-0.0653,-0.0687,-0.0728,-0.0746,-0.074,-0.0703,-0.0673,-0.0564,-0.054,-0.0356,-0.0241,-0.0027,0.0103,0.0239,0.0268,0.0294,0.0302,0.0303,0.0226,0.0128,0.0202,0,0,0,0,0,-0.0605,-0.0638,-0.0677,-0.072,-0.076,-0.0776,-0.0771,-0.0751,-0.0701,-0.0637,-0.0582,-0.0437,-0.0206,-0.0094,0.0039,0.0096,0.0283,0.0254,0.0315,0.045,0.045,0.0381,0,0,0,0,0,0,-0.0619,-0.0663,-0.068,-0.0735,-0.0766,-0.0803,-0.0799,-0.0765,-0.0709,-0.0643,-0.0511,-0.0435,-0.02,-0.0291,0.0029,0.0073,0.0123,0.037,0.0372,0.0451,0.045,0.045,0.0379,0,0,0,0,0]}]]